| time (UTC) | temp F | wind direction | speed MPH | gust MPH | rain 1hr in | rain 24hr in | rain mn in | humidity % | barometer mb |
| 20260831154529 | 84 | 107 | 5.0 | 10.0 | 0.00 | 0.00 | 0.00 | 47 | 1001.0 |
| 20260831153048 | 83 | 146 | 5.0 | 10.0 | 0.00 | 0.00 | 0.00 | 49 | 1000.9 |
| 20260831151534 | 82 | 142 | 7.0 | 11.0 | 0.00 | 0.00 | 0.00 | 51 | 1000.8 |
| 20260831150033 | 81 | 196 | 5.0 | 11.0 | 0.00 | 0.00 | 0.00 | 52 | 1000.8 |
| 20260831144523 | 80 | 165 | 8.0 | 12.0 | 0.00 | 0.00 | 0.00 | 54 | 1000.8 |
| 20260831143035 | 78 | 138 | 11.0 | 16.0 | 0.00 | 0.00 | 0.00 | 56 | 1000.8 |
| 20260831141525 | 78 | 138 | 12.0 | 17.0 | 0.00 | 0.00 | 0.00 | 56 | 1000.8 |
| 20260831140043 | 77 | 140 | 12.0 | 17.0 | 0.00 | 0.00 | 0.00 | 58 | 1000.6 |
| 20260831134518 | 77 | 134 | 13.0 | 20.0 | 0.00 | 0.00 | 0.00 | 59 | 1000.4 |
| 20260831133029 | 76 | 141 | 9.0 | 12.0 | 0.00 | 0.00 | 0.00 | 59 | 1000.3 |
| 20260831131516 | 76 | 134 | 9.0 | 14.0 | 0.00 | 0.00 | 0.00 | 59 | 1000.2 |
| 20260831130019 | 76 | 138 | 7.0 | 9.0 | 0.00 | 0.00 | 0.00 | 59 | 1000.2 |
| 20260831124529 | 76 | 178 | 4.0 | 7.0 | 0.00 | 0.00 | 0.00 | 59 | 1000.2 |
| 20260831123010 | 76 | 155 | 4.0 | 10.0 | 0.00 | 0.00 | 0.00 | 59 | 999.9 |
| 20260831121520 | 76 | 142 | 8.0 | 16.0 | 0.00 | 0.00 | 0.00 | 58 | 999.7 |
| 20260831120017 | 76 | 148 | 14.0 | 19.0 | 0.00 | 0.00 | 0.00 | 57 | 999.4 |
| 20260831114504 | 77 | 147 | 14.0 | 22.0 | 0.00 | 0.00 | 0.00 | 57 | 999.4 |
| 20260831113004 | 77 | 142 | 16.0 | 22.0 | 0.00 | 0.00 | 0.00 | 56 | 999.2 |
| 20260831111501 | 77 | 137 | 16.0 | 20.0 | 0.00 | 0.00 | 0.00 | 55 | 999.1 |
| 20260831110100 | 78 | 146 | 16.0 | 22.0 | 0.00 | 0.00 | 0.00 | 55 | 999.1 |
| 20260831104557 | 78 | 140 | 17.0 | 23.0 | 0.00 | 0.00 | 0.00 | 54 | 999.1 |
| 20260831103056 | 78 | 141 | 18.0 | 24.0 | 0.00 | 0.00 | 0.00 | 53 | 999.1 |
| 20260831101604 | 78 | 142 | 18.0 | 24.0 | 0.00 | 0.00 | 0.00 | 53 | 999.0 |
| 20260831100053 | 79 | 142 | 19.0 | 23.0 | 0.00 | 0.00 | 0.00 | 52 | 998.9 |
| 20260831094604 | 79 | 144 | 17.0 | 20.0 | 0.00 | 0.00 | 0.00 | 52 | 998.8 |
| 20260831093050 | 79 | 139 | 16.0 | 22.0 | 0.00 | 0.00 | 0.00 | 52 | 998.9 |
| 20260831091547 | 79 | 137 | 16.0 | 21.0 | 0.00 | 0.00 | 0.00 | 51 | 999.0 |
| 20260831090045 | 80 | 146 | 16.0 | 22.0 | 0.00 | 0.00 | 0.00 | 51 | 999.0 |
| 20260831080038 | 81 | 141 | 19.0 | 23.0 | 0.00 | 0.00 | 0.00 | 50 | 998.9 |
| 20260831074540 | 81 | 141 | 17.0 | 22.0 | 0.00 | 0.00 | 0.00 | 49 | 999.1 |
| 20260831073040 | 82 | 136 | 18.0 | 24.0 | 0.00 | 0.00 | 0.00 | 49 | 999.0 |
| 20260831071539 | 82 | 138 | 20.0 | 26.0 | 0.00 | 0.00 | 0.00 | 49 | 999.2 |
| 20260831070105 | 83 | 142 | 20.0 | 25.0 | 0.00 | 0.00 | 0.00 | 48 | 999.2 |
| 20260831064537 | 83 | 149 | 20.0 | 29.0 | 0.00 | 0.00 | 0.00 | 47 | 999.3 |
| 20260831063036 | 84 | 146 | 22.0 | 27.0 | 0.00 | 0.00 | 0.00 | 47 | 999.2 |
| 20260831061535 | 84 | 151 | 23.0 | 31.0 | 0.00 | 0.00 | 0.00 | 46 | 999.2 |
| 20260831060044 | 84 | 155 | 24.0 | 29.0 | 0.00 | 0.00 | 0.00 | 46 | 999.2 |
| 20260831054535 | 85 | 146 | 24.0 | 33.0 | 0.00 | 0.00 | 0.00 | 45 | 999.1 |
| 20260831053035 | 85 | 153 | 24.0 | 35.0 | 0.00 | 0.00 | 0.00 | 45 | 999.1 |
| 20260831051548 | 86 | 144 | 30.0 | 38.0 | 0.00 | 0.00 | 0.00 | 44 | 999.1 |
| 20260831050036 | 86 | 144 | 29.0 | 43.0 | 0.00 | 0.00 | 0.00 | 43 | 999.1 |
| 20260831044535 | 87 | 146 | 29.0 | 39.0 | 0.00 | 0.00 | 0.00 | 41 | 999.1 |
| 20260831043031 | 87 | 147 | 26.0 | 34.0 | 0.00 | 0.00 | 0.00 | 38 | 999.0 |
| 20260831041535 | 88 | 144 | 24.0 | 34.0 | 0.00 | 0.00 | 0.00 | 37 | 999.0 |
| 20260831040042 | 89 | 139 | 23.0 | 36.0 | 0.00 | 0.00 | 0.00 | 35 | 998.8 |
| 20260831034530 | 89 | 146 | 26.0 | 36.0 | 0.00 | 0.00 | 0.00 | 35 | 998.6 |
| 20260831033032 | 90 | 137 | 26.0 | 34.0 | 0.00 | 0.00 | 0.00 | 34 | 998.5 |
| 20260831031527 | 91 | 128 | 25.0 | 33.0 | 0.00 | 0.00 | 0.00 | 33 | 998.2 |
| 20260831030029 | 91 | 140 | 25.0 | 31.0 | 0.00 | 0.00 | 0.00 | 33 | 998.0 |
| 20260831024527 | 92 | 134 | 23.0 | 29.0 | 0.00 | 0.00 | 0.00 | 33 | 997.7 |
| 20260831023036 | 93 | 128 | 21.0 | 26.0 | 0.00 | 0.00 | 0.00 | 33 | 997.6 |
| 20260831021546 | 93 | 137 | 22.0 | 29.0 | 0.00 | 0.00 | 0.00 | 32 | 997.3 |
| 20260831020028 | 94 | 126 | 16.0 | 22.0 | 0.00 | 0.00 | 0.00 | 27 | 997.2 |
| 20260831014527 | 95 | 142 | 11.0 | 16.0 | 0.00 | 0.00 | 0.00 | 24 | 997.0 |
| 20260831013025 | 95 | 130 | 14.0 | 20.0 | 0.00 | 0.00 | 0.00 | 24 | 996.9 |
| 20260831011531 | 96 | 137 | 12.0 | 19.0 | 0.00 | 0.00 | 0.00 | 23 | 996.9 |
| 20260831010044 | 96 | 132 | 12.0 | 19.0 | 0.00 | 0.00 | 0.00 | 23 | 996.7 |
| 20260831004525 | 97 | 134 | 14.0 | 20.0 | 0.00 | 0.00 | 0.00 | 23 | 996.7 |
| 20260831003030 | 97 | 90 | 13.0 | 19.0 | 0.00 | 0.00 | 0.00 | 24 | 996.5 |
| 20260831001548 | 97 | 113 | 9.0 | 18.0 | 0.00 | 0.00 | 0.00 | 24 | 996.5 |
| 20260831000029 | 98 | 107 | 13.0 | 23.0 | 0.00 | 0.00 | 0.00 | 24 | 996.4 |
| 20260830234523 | 98 | 124 | 6.0 | 12.0 | 0.00 | 0.00 | 0.00 | 21 | 996.5 |
| 20260830233028 | 98 | 129 | 5.0 | 13.0 | 0.00 | 0.00 | 0.00 | 21 | 996.6 |
| 20260830231531 | 99 | 138 | 14.0 | 20.0 | 0.00 | 0.00 | 0.00 | 21 | 996.6 |
| 20260830230019 | 99 | 51 | 5.0 | 13.0 | 0.00 | 0.00 | 0.00 | 21 | 996.7 |
| 20260830224544 | 98 | 81 | 6.0 | 12.0 | 0.00 | 0.00 | 0.00 | 21 | 996.8 |
| 20260830223022 | 98 | 111 | 5.0 | 11.0 | 0.00 | 0.00 | 0.00 | 22 | 997.0 |
| 20260830221518 | 98 | 83 | 13.0 | 19.0 | 0.00 | 0.00 | 0.00 | 22 | 997.0 |
| 20260830220024 | 98 | 39 | 4.0 | 11.0 | 0.00 | 0.00 | 0.00 | 22 | 997.2 |
| 20260830214541 | 97 | 9 | 7.0 | 15.0 | 0.00 | 0.00 | 0.00 | 23 | 997.3 |
| 20260830213035 | 97 | 25 | 11.0 | 18.0 | 0.00 | 0.00 | 0.00 | 22 | 997.5 |
| 20260830203116 | 97 | 196 | 5.0 | 11.0 | 0.00 | 0.00 | 0.00 | 25 | 998.6 |
| 20260830201558 | 96 | 306 | 10.0 | 15.0 | 0.00 | 0.00 | 0.00 | 25 | 998.9 |
| 20260830200059 | 97 | 41 | 3.0 | 11.0 | 0.00 | 0.00 | 0.00 | 26 | 999.1 |
| 20260830194551 | 96 | 325 | 5.0 | 10.0 | 0.00 | 0.00 | 0.00 | 29 | 999.4 |
| 20260830193048 | 96 | 83 | 4.0 | 14.0 | 0.00 | 0.00 | 0.00 | 29 | 999.6 |
| 20260830191508 | 95 | 83 | 7.0 | 16.0 | 0.00 | 0.00 | 0.00 | 30 | 999.8 |
| 20260830181539 | 93 | 198 | 6.0 | 9.0 | 0.00 | 0.00 | 0.00 | 33 | 1000.8 |
| 20260830180047 | 92 | 131 | 5.0 | 12.0 | 0.00 | 0.00 | 0.00 | 34 | 1001.0 |
| 20260830174531 | 91 | 195 | 6.0 | 11.0 | 0.00 | 0.00 | 0.00 | 35 | 1001.2 |
| 20260830173051 | 91 | 171 | 6.0 | 11.0 | 0.00 | 0.00 | 0.00 | 36 | 1001.3 |
| 20260830171530 | 90 | 234 | 2.0 | 8.0 | 0.00 | 0.00 | 0.00 | 37 | 1001.4 |
| 20260830170032 | 90 | 202 | 9.0 | 14.0 | 0.00 | 0.00 | 0.00 | 37 | 1001.6 |
| 20260830164518 | 90 | 221 | 1.0 | 10.0 | 0.00 | 0.00 | 0.00 | 38 | 1001.9 |
| 20260830163016 | 90 | 142 | 5.0 | 8.0 | 0.00 | 0.00 | 0.00 | 40 | 1001.9 |
| 20260830161512 | 88 | 38 | 4.0 | 11.0 | 0.00 | 0.00 | 0.00 | 41 | 1001.9 |
| 20260830160010 | 88 | 57 | 3.0 | 10.0 | 0.00 | 0.00 | 0.00 | 42 | 1001.9 |